Вернуться в каталог

QIANFAN-225

АктивенСвязьPO
NORAD 69854·PAYLOAD·🇨🇳 China

Запущен Jul 5, 2026 с Wenchang Space Launch Site

Loading…

Ближайшие Пролёты (ближайшие 24 часа)

TLE

СвежийSource: Space-Track

Эпоха: Sep 14, 2026, 12:32 UTC

1 69854U 26155G   26257.52238664 -.01782978  00000-0 -28263+1 0  9994
2 69854  89.0072  54.3477 0039555  25.5044 334.8049 13.53471710  9908

Отслеживайте QIANFAN-225 в реальном времени с AllMySat

Download on the App Store